Starlink 36440

operational
NORAD ID: 67447 Int'l Des: 2026-008 Owner: SPXS Country: US Constellation: starlink
NOTLE

About Starlink 36440

Description loading...

Live Position

Loading 3D Globe...

Upcoming Passes

Altitude History

Altitude vs Time

uPlot chart will show altitude changes over time

Two-Line Element Set

1 67447U 26008C 26047.58335648 -.02404055 00000-0 -90897-1 0 9991
2 67447 43.0008 324.1537 0001517 267.6511 226.6116 15.30250208 6109
Epoch: Feb 16, 2026 • Age: 9 hours

Current Status

Altitude 485.6 km
Velocity 7.63 km/s
Sub-Earth Point 42.87°N, 75.5°W
Launch Date Jan 14, 2026
Age 33 days
Type internet

Technical Details

Classification Payload
Mass 575.00 kg
Dry Mass 530.00 kg
Total Mass 575.00 kg
Length 0.30 m
Diameter 4.10 m
Span 29.00 m
Shape Box + pan
Manufacturer SPXS
Bus Type Starlink V2MO
Phase Status In Orbit
Owner/State SPXS/US

Large Constellations

Loading constellations...